{"data":{"norad_id":60433,"epoch":"2026-05-24T22:41:41.616384Z","epoch_age_seconds":79007,"freshness":"FRESH","line1":"1 60433U 24144J   26144.94562056 -.00001124  00000+0 -25819-4 0  9993","line2":"2 60433  53.1608 222.9774 0001128  78.4548 281.6579 15.30196481100986","mean_motion":15.30196481,"eccentricity":0.0001128,"inclination_deg":53.1608,"raan_deg":222.9774,"arg_perigee_deg":78.4548,"mean_anomaly_deg":281.6579,"bstar":-2.5819e-5,"rev_number":10098,"period_min":94.105562120947,"perigee_km":474.45251724052,"apogee_km":475.99863583779,"semimajor_km":6853.3625765392,"source":"CELESTRAK","updated_at":"2026-05-25T13:38:19.274151Z"}}